When you browse on this site, cookies collect data to enhance your experience and personalize the content and advertising you see.
Visit our Privacy Policy to learn more. By continuing to use the site, you agree to this use of cookies and data.
  • Em Portugal
  • Lista de países
  • Para 7 dias
  • Temperatura da água
  • Mapa do tempo
  • Widgets de tempo
  • user-avatar
    Iniciar Sessão

    Previsão horária em Querns

    Hoje, 14 Dezembro, Sábado

    Tempo Temperatura Precipitação Vento Pressão Humidade
    00:00 +25°C° 0 mm 1 m/s 756 mmHg 94%
    01:00 +25°C° 0 mm 1 m/s 756 mmHg 94%
    02:00 +24°C° 0 mm 1 m/s 756 mmHg 93%
    03:00 +24°C° 0 mm 1 m/s 756 mmHg 93%
    04:00 +24°C° 0 mm 1 m/s 756 mmHg 93%
    05:00 +25°C° 0 mm 1 m/s 757 mmHg 84%
    06:00 +27°C° 0 mm 1 m/s 757 mmHg 76%
    07:00 +28°C° 0 mm 1 m/s 758 mmHg 67%
    08:00 +32°C° 0 mm 1 m/s 757 mmHg 55%
    09:00 +37°C° 0 mm 2 m/s 757 mmHg 42%
    10:00 +40°C° 0 mm 2 m/s 757 mmHg 30%
    11:00 +40°C° 0 mm 2 m/s 756 mmHg 31%
    12:00 +41°C° 0 mm 2 m/s 756 mmHg 31%
    13:00 +41°C° 0 mm 2 m/s 755 mmHg 32%
    14:00 +39°C° 0 mm 2 m/s 755 mmHg 36%
    15:00 +38°C° 0 mm 2 m/s 754 mmHg 40%
    16:00 +37°C° 0 mm 2 m/s 754 mmHg 45%
    17:00 +34°C° 0 mm 2 m/s 754 mmHg 55%
    18:00 +31°C° 0 mm 2 m/s 754 mmHg 66%
    19:00 +28°C° 0 mm 2 m/s 755 mmHg 77%
    20:00 +28°C° 0 mm 1 m/s 755 mmHg 76%
    21:00 +28°C° 0 mm 1 m/s 756 mmHg 75%
    22:00 +28°C° 0 mm 1 m/s 756 mmHg 74%
    23:00 +27°C° 0 mm 1 m/s 756 mmHg 77%

    Amanhã, 15 Dezembro, Domingo

    Tempo Temperatura Precipitação Vento Pressão Humidade
    00:00 +27°C° 0 mm 2 m/s 756 mmHg 79%
    01:00 +26°C° 0 mm 2 m/s 755 mmHg 81%
    02:00 +26°C° 0 mm 2 m/s 755 mmHg 84%
    03:00 +25°C° 0 mm 1 m/s 755 mmHg 87%
    04:00 +23°C° 0 mm 0 m/s 755 mmHg 91%
    05:00 +26°C° 0 mm 1 m/s 756 mmHg 87%
    06:00 +27°C° 0 mm 1 m/s 756 mmHg 84%
    07:00 +28°C° 0 mm 1 m/s 757 mmHg 80%
    08:00 +31°C° 0 mm 1 m/s 757 mmHg 68%
    09:00 +34°C° 0 mm 1 m/s 757 mmHg 56%
    10:00 +37°C° 0 mm 2 m/s 757 mmHg 44%
    11:00 +38°C° 0 mm 2 m/s 756 mmHg 42%
    12:00 +39°C° 0 mm 3 m/s 755 mmHg 41%
    13:00 +40°C° 0 mm 3 m/s 755 mmHg 39%
    14:00 +37°C° 1.1 mm 3 m/s 754 mmHg 54%
    15:00 +33°C° 1.1 mm 3 m/s 754 mmHg 68%
    16:00 +29°C° 1.1 mm 2 m/s 754 mmHg 82%
    17:00 +28°C° 0.4 mm 2 m/s 754 mmHg 84%
    18:00 +28°C° 0.4 mm 2 m/s 755 mmHg 85%
    19:00 +27°C° 0.4 mm 2 m/s 755 mmHg 86%
    20:00 +27°C° 0 mm 2 m/s 756 mmHg 88%
    21:00 +27°C° 0 mm 2 m/s 756 mmHg 90%
    22:00 +27°C° 0 mm 2 m/s 757 mmHg 92%
    23:00 +27°C° 0 mm 2 m/s 757 mmHg 92%

    Depois de amanhã, 16 Dezembro, Segunda-feira

    Tempo Temperatura Precipitação Vento Pressão Humidade
    00:00 +27°C° 0 mm 1 m/s 756 mmHg 92%
    01:00 +27°C° 0 mm 1 m/s 756 mmHg 93%
    02:00 +27°C° 0 mm 1 m/s 756 mmHg 93%
    03:00 +27°C° 0 mm 1 m/s 756 mmHg 93%
    04:00 +26°C° 0 mm 1 m/s 756 mmHg 93%
    05:00 +27°C° 0 mm 1 m/s 756 mmHg 90%
    06:00 +27°C° 0 mm 1 m/s 757 mmHg 88%
    07:00 +28°C° 0 mm 1 m/s 757 mmHg 86%
    08:00 +30°C° 0 mm 1 m/s 757 mmHg 73%
    09:00 +33°C° 0 mm 1 m/s 757 mmHg 60%
    10:00 +36°C° 0 mm 2 m/s 757 mmHg 46%
    11:00 +37°C° 0 mm 2 m/s 757 mmHg 44%
    12:00 +38°C° 0 mm 2 m/s 756 mmHg 42%
    13:00 +39°C° 0 mm 2 m/s 756 mmHg 40%
    14:00 +38°C° 0 mm 2 m/s 755 mmHg 40%
    15:00 +38°C° 0 mm 2 m/s 755 mmHg 40%
    16:00 +37°C° 0 mm 2 m/s 754 mmHg 40%
    17:00 +34°C° 0 mm 2 m/s 755 mmHg 53%
    18:00 +31°C° 0 mm 2 m/s 755 mmHg 65%
    19:00 +28°C° 0 mm 2 m/s 756 mmHg 78%
    20:00 +27°C° 0 mm 1 m/s 756 mmHg 83%
    21:00 +26°C° 0 mm 1 m/s 757 mmHg 88%
    22:00 +25°C° 0 mm 1 m/s 757 mmHg 93%
    23:00 +25°C° 0 mm 1 m/s 757 mmHg 94%

    17 Dezembro, Terça-feira

    Tempo Temperatura Precipitação Vento Pressão Humidade
    00:00 +24°C° 0 mm 1 m/s 756 mmHg 94%
    01:00 +24°C° 0 mm 1 m/s 756 mmHg 94%
    02:00 +24°C° 0 mm 1 m/s 756 mmHg 94%
    03:00 +24°C° 0 mm 1 m/s 756 mmHg 93%
    04:00 +24°C° 0 mm 1 m/s 755 mmHg 92%
    05:00 +25°C° 0 mm 1 m/s 756 mmHg 85%
    06:00 +26°C° 0 mm 1 m/s 756 mmHg 78%
    07:00 +27°C° 0 mm 1 m/s 757 mmHg 71%
    08:00 +30°C° 0 mm 1 m/s 757 mmHg 58%
    09:00 +34°C° 0 mm 1 m/s 757 mmHg 46%
    10:00 +38°C° 0 mm 2 m/s 757 mmHg 33%
    11:00 +38°C° 0 mm 2 m/s 757 mmHg 34%
    12:00 +38°C° 0 mm 3 m/s 756 mmHg 34%
    13:00 +38°C° 0 mm 3 m/s 756 mmHg 35%
    14:00 +37°C° 0 mm 3 m/s 755 mmHg 38%
    15:00 +36°C° 0 mm 3 m/s 755 mmHg 41%
    16:00 +35°C° 0 mm 4 m/s 755 mmHg 44%
    17:00 +33°C° 0 mm 3 m/s 755 mmHg 55%
    18:00 +30°C° 0 mm 3 m/s 756 mmHg 66%
    19:00 +27°C° 0 mm 3 m/s 757 mmHg 77%
    20:00 +27°C° 0 mm 3 m/s 757 mmHg 83%
    21:00 +26°C° 0 mm 3 m/s 757 mmHg 88%
    22:00 +25°C° 0 mm 3 m/s 758 mmHg 93%
    23:00 +25°C° 0 mm 3 m/s 758 mmHg 94%

    18 Dezembro, Quarta-feira

    Tempo Temperatura Precipitação Vento Pressão Humidade
    00:00 +25°C° 0 mm 3 m/s 757 mmHg 95%
    01:00 +24°C° 0 mm 3 m/s 757 mmHg 96%
    02:00 +25°C° 0 mm 3 m/s 757 mmHg 95%
    03:00 +25°C° 0 mm 3 m/s 757 mmHg 94%
    04:00 +25°C° 0 mm 3 m/s 757 mmHg 93%
    05:00 +26°C° 0.1 mm 4 m/s 757 mmHg 90%
    06:00 +26°C° 0.1 mm 4 m/s 758 mmHg 87%
    07:00 +27°C° 0.1 mm 4 m/s 758 mmHg 85%
    08:00 +29°C° 0.1 mm 4 m/s 758 mmHg 75%
    09:00 +32°C° 0.1 mm 5 m/s 758 mmHg 65%
    10:00 +33°C° 0.1 mm 5 m/s 758 mmHg 56%
    11:00 +34°C° 0 mm 5 m/s 758 mmHg 53%
    12:00 +35°C° 0 mm 5 m/s 758 mmHg 51%
    13:00 +36°C° 0 mm 6 m/s 757 mmHg 49%
    14:00 +35°C° 0 mm 5 m/s 757 mmHg 49%
    15:00 +35°C° 0 mm 5 m/s 756 mmHg 50%
    16:00 +34°C° 0 mm 5 m/s 756 mmHg 51%
    17:00 +33°C° 0 mm 5 m/s 756 mmHg 60%
    18:00 +30°C° 0 mm 5 m/s 757 mmHg 68%
    19:00 +28°C° 0 mm 5 m/s 757 mmHg 77%
    20:00 +27°C° 0.2 mm 4 m/s 757 mmHg 82%
    21:00 +27°C° 0.2 mm 4 m/s 758 mmHg 88%
    22:00 +26°C° 0.2 mm 4 m/s 758 mmHg 94%
    23:00 +26°C° 0.2 mm 4 m/s 758 mmHg 94%

    19 Dezembro, Quinta-feira

    Tempo Temperatura Precipitação Vento Pressão Humidade
    00:00 +25°C° 0.2 mm 4 m/s 757 mmHg 95%
    01:00 +25°C° 0.2 mm 4 m/s 757 mmHg 96%
    02:00 +25°C° 0.2 mm 4 m/s 757 mmHg 97%
    03:00 +23°C° 0.2 mm 4 m/s 756 mmHg 97%
    04:00 +23°C° 0.2 mm 4 m/s 756 mmHg 97%
    05:00 +25°C° 0.1 mm 4 m/s 757 mmHg 95%
    06:00 +26°C° 0.1 mm 4 m/s 757 mmHg 92%
    07:00 +26°C° 0.1 mm 4 m/s 758 mmHg 89%
    08:00 +28°C° 0.5 mm 4 m/s 758 mmHg 83%
    09:00 +29°C° 0.5 mm 5 m/s 758 mmHg 77%
    10:00 +32°C° 0.5 mm 5 m/s 758 mmHg 71%
    11:00 +32°C° 0.9 mm 5 m/s 758 mmHg 69%
    12:00 +33°C° 0.9 mm 5 m/s 758 mmHg 66%
    13:00 +33°C° 0.9 mm 4 m/s 757 mmHg 64%
    14:00 +33°C° 0.2 mm 4 m/s 757 mmHg 61%
    15:00 +33°C° 0.2 mm 4 m/s 757 mmHg 58%
    16:00 +34°C° 0.2 mm 4 m/s 756 mmHg 55%
    17:00 +32°C° 0.3 mm 4 m/s 757 mmHg 64%
    18:00 +29°C° 0.3 mm 4 m/s 757 mmHg 73%
    19:00 +27°C° 0.3 mm 4 m/s 758 mmHg 82%
    20:00 +27°C° 0.9 mm 4 m/s 758 mmHg 86%
    21:00 +27°C° 0.9 mm 4 m/s 758 mmHg 89%
    22:00 +26°C° 0.9 mm 5 m/s 758 mmHg 93%
    23:00 +26°C° 0.9 mm 5 m/s 758 mmHg 94%
    Mostrar mais